Lexington Weather

Lexington, Massachusetts, USA

32°F
11/15/2019 2:04am 
  • Lexington Conditions: Mostly cloudy
  • Temperature: 31.5°F / -0.3°CWarmer 0.6°F than last hour.
  • Dew Point: 29.1°FIncreased 1.2°Fsince last hour.
  • Relative Humidity: 91%Increased 3.0% since last hour.
  • Wind: Wind from SSW SSW 1 mph, 10-min avg: Calm, gust: 3 mph
  • Barometer: 30.19 in Steady
  • Visibility: 10 miles
  • Snow Today: 0.0 in
  •   

Regional Weather Roundup
for Boston / Norton, MA

        
000
ASUS41 KBOX 150500
RWRBOX

REGIONAL WEATHER ROUNDUP
NATIONAL WEATHER SERVICE BOSTON/NORTON MA
1200 AM EST FRI NOV 15 2019

NOTE:  "FAIR" INDICATES FEW OR NO CLOUDS BELOW 12,000 FEET WITH NO 
SIGNIFICANT WEATHER AND/OR OBSTRUCTIONS TO VISIBILITY.

MAZALL-150600-
EASTERN MASSACHUSETTS
  
CITY           SKY/WX    TMP DP  RH WIND       PRES   REMARKS
BOSTON         MOCLDY    41  32  70 SW10      30.26F                  
BEVERLY        FAIR      34  30  85 SW3       30.25F                  
LAWRENCE       FAIR      32  25  75 S3        30.26F                  
BEDFORD        FAIR      30  25  81 CALM      30.25F                  
BLUE HILL        N/A     37  32  82 SW10      30.22F WCI  30          
NORWOOD        FAIR      31  24  75 CALM      30.26S                  
MARSHFIELD     NOT AVBL                                               
PLYMOUTH       MOCLDY    35  33  92 CALM      30.26F                  
TAUNTON        FAIR      32  28  85 CALM      30.26F                  
NEW BEDFORD    FAIR      36  32  85 CALM      30.25F                  
$$

MAZALL-150600-
CAPE COD AND THE ISLANDS
  
CITY           SKY/WX    TMP DP  RH WIND       PRES   REMARKS
FALMOUTH       MOCLDY    39  37  93 NW7       30.26S                  
HYANNIS        NOT AVBL                                               
CHATHAM        LGT RAIN  48  46  93 VRB5      30.26F                  
PROVINCETOWN   MOCLDY    46  39  76 W7        30.26F                  
NANTUCKET      CLOUDY    51  47  86 S14       30.26F                  
MARTHAS VNYRD  MOCLDY    48  42  80 W3        30.26S                  
$$
 
MAZALL-150600-
CENTRAL AND WESTERN MASSACHUSETTS
  
CITY           SKY/WX    TMP DP  RH WIND       PRES   REMARKS
WORCESTER      FAIR      32  25  75 SW14      30.21F WCI  22          
FITCHBURG      FAIR      38  24  57 VRB3      30.24F                  
ORANGE         CLOUDY    30  25  81 CALM      30.23F                  
SPRINGFIELD    FAIR      24  19  82 CALM      30.24F                  
WESTFIELD      FAIR      26  21  81 CALM      30.25F                  
NORTH ADAMS    CLOUDY    32  21  64 CALM      30.21F                  
PITTSFIELD     CLOUDY    33  19  56 SW7       30.18F WCI  27          
$$
 
RIZALL-150600-
RHODE ISLAND
  
CITY           SKY/WX    TMP DP  RH WIND       PRES   REMARKS
PROVIDENCE     CLOUDY    35  30  82 W3        30.27F                  
NEWPORT        CLOUDY    43  37  79 W3        30.26F                  
BLOCK ISLAND   FAIR      46  40  79 W13       30.28S                  
SMITHFIELD     FAIR      33  30  88 CALM      30.25F                  
WESTERLY       FAIR      35  29  78 W5        30.28S WCI  31          
$$
 
CTZALL-150600-
CONNECTICUT
  
CITY           SKY/WX    TMP DP  RH WIND       PRES   REMARKS
BRADLEY INTL   MOCLDY    29  21  72 S5        30.26F WCI  24          
HARTFORD       FAIR      30  24  78 CALM      30.28F                  
BRIDGEPORT     FAIR      42  25  50 W8        30.29S                  
DANBURY        FAIR      29  24  82 CALM      30.28S                  
GROTON         NOT AVBL                                               
NEW HAVEN      FAIR      44  28  53 W3        30.28S                  
CHESTER        MOCLDY    39  27  60 VRB3      30.27S                  
MERIDEN        FAIR      29  27  92 CALM      30.28S                  
WILLIMANTIC    FAIR      29  26  89 CALM      30.28F                  
OXFORD         FAIR      34  24  67 SW3       30.26S                  
$$

MEZ002-015-021-024-NHZ003-005-008-011-012-014-VTZ005-008-150600-
NORTHERN NEW ENGLAND
  
CITY           SKY/WX    TMP DP  RH WIND       PRES   REMARKS
PORTLAND ME    FAIR      30  21  69 CALM      30.24F                  
BANGOR ME      CLOUDY    30  27  88 CALM      30.23F                  
CONCORD NH     MOCLDY    27  20  75 CALM      30.23F                  
MANCHESTER NH  CLOUDY    28  20  71 CALM      30.23F                  
NASHUA NH      FAIR      27  22  81 CALM      30.24F                  
PORTSMOUTH NH  NOT AVBL                                               
JAFFREY NH     CLOUDY    27  24  89 CALM      30.20F                  
KEENE NH       MOCLDY    25  22  88 CALM      30.23F                  
BURLINGTON VT  CLOUDY    33  20  58 S12       30.16F WCI  24          
MT. WASHINGTON FOG        9   9 100 W40         N/A  VSB 1/8 WCI -17  
$$

NYZ052-076-150600-
EASTERN NEW YORK
  
CITY           SKY/WX    TMP DP  RH WIND       PRES   REMARKS
ALBANY         CLOUDY    36  20  52 S6        30.23F WCI  31          
NEW YORK CITY  CLOUDY    42  22  44 SW10      30.29F                  
$$
 
ANZALL-150600-
MARINE OBSERVATIONS
  
STATION/POSITION TIME  TEMP    WIND        PRES    VSBY  WAVE
                       AIR SEA DIR/SP/G                  HT/PER
                 (UTC) (F)     (DEG/KT/KT) (MB)    (MI)  (FT/S)
BOSTON BUOY      0350   45 52  220/ 12/ 14 1024.1          2/ 4
BUZZARDS BAY     0400   51     260/ 14/ 15 1025.4F
NANTUCKET SOUND  NOT AVBL
MASS BAY-STELLWA 0404   46 50  230/ 14/ 17 1024.0F  1 7/8  3/ 5
ISLE OF SHOALS   0400   41     250/  8/  9 1024.3F
S OF BLOCK IS    0430      58                N/A           6/ 6
$$

......................KEY.........................
  SKY/WX - SKY CONDITION/PRESENT WEATHER
  TMP    - TEMPERATURE IN FAHRENHEIT
  DWPT   - DEWPOINT IN FAHRENHEIT
  RH     - RELATIVE HUMIDITY IN PERCENT
  WIND   - DIRECTION AND SPEED IN MPH
  PRES   - MEAN SEA LEVEL PRESSURE IN INCHES OF HG
  WCI    - WIND CHILL INDEX
  VSB    - VISIBILITY IN MILES
  HX     - HEAT INDEX
  TC     - TEMPERATURE IN CELSIUS
  VRB    - VARIABLE WIND DIRECTION
  N/A    - NOT AVAILABLE
  
      

Other recent Regional Weather Roundups

Fri Nov 15, 2:00am

Fri Nov 15, 1:10am

Fri Nov 15, 1:00am

Fri Nov 15, 12:10am

Thu Nov 14, 11:10pm

Thu Nov 14, 11:00pm

Thu Nov 14, 10:10pm

Thu Nov 14, 10:00pm

Thu Nov 14, 9:10pm

Thu Nov 14, 9:00pm

Thu Nov 14, 8:10pm

Thu Nov 14, 8:00pm

Thu Nov 14, 7:10pm

Thu Nov 14, 7:00pm

Thu Nov 14, 6:10pm

Thu Nov 14, 6:01pm

Thu Nov 14, 5:10pm

Thu Nov 14, 5:00pm

Thu Nov 14, 4:10pm

Thu Nov 14, 4:00pm

Thu Nov 14, 3:10pm

Thu Nov 14, 3:00pm

Thu Nov 14, 2:10pm

Thu Nov 14, 2:00pm

Thu Nov 14, 1:10pm

Thu Nov 14, 1:00pm

Thu Nov 14, 12:10pm

Thu Nov 14, 12:01pm

Thu Nov 14, 11:10am

Thu Nov 14, 11:00am

Thu Nov 14, 10:10am

Thu Nov 14, 10:01am

Thu Nov 14, 9:10am

Thu Nov 14, 9:00am

Thu Nov 14, 8:10am

Thu Nov 14, 8:00am

Thu Nov 14, 7:10am

Thu Nov 14, 7:00am

Thu Nov 14, 6:10am

Thu Nov 14, 6:00am

Thu Nov 14, 5:10am

Thu Nov 14, 5:00am

Thu Nov 14, 4:10am

Thu Nov 14, 4:00am

Thu Nov 14, 3:10am

Thu Nov 14, 3:00am

Thu Nov 14, 2:10am

Thu Nov 14, 2:00am

Thu Nov 14, 1:10am

Thu Nov 14, 1:00am

Thu Nov 14, 12:10am

Thu Nov 14, 12:00am

Wed Nov 13, 11:10pm

Wed Nov 13, 11:00pm

Wed Nov 13, 10:10pm

Wed Nov 13, 10:00pm

Wed Nov 13, 9:10pm

Wed Nov 13, 9:00pm

Wed Nov 13, 8:10pm

Wed Nov 13, 8:00pm

Wed Nov 13, 7:10pm

Wed Nov 13, 7:00pm

Wed Nov 13, 6:10pm

Wed Nov 13, 6:01pm

Wed Nov 13, 5:10pm

Wed Nov 13, 5:00pm

Wed Nov 13, 4:10pm

Wed Nov 13, 4:00pm

Wed Nov 13, 3:10pm

Wed Nov 13, 3:01pm

Wed Nov 13, 2:10pm

Wed Nov 13, 2:01pm

Wed Nov 13, 1:10pm

Wed Nov 13, 1:00pm

Wed Nov 13, 12:10pm

Wed Nov 13, 12:01pm

Wed Nov 13, 11:10am

Wed Nov 13, 11:00am

Wed Nov 13, 10:10am

Wed Nov 13, 10:00am

Wed Nov 13, 9:10am

Wed Nov 13, 9:00am

Wed Nov 13, 8:10am

Wed Nov 13, 8:00am

Wed Nov 13, 7:10am

Wed Nov 13, 7:00am

Wed Nov 13, 6:10am

Wed Nov 13, 6:00am

Wed Nov 13, 5:10am

Wed Nov 13, 5:00am

Wed Nov 13, 4:10am

Wed Nov 13, 4:00am

Wed Nov 13, 3:10am

Wed Nov 13, 3:00am

Wed Nov 13, 2:10am

Wed Nov 13, 2:00am

Wed Nov 13, 1:10am

Wed Nov 13, 1:00am

Wed Nov 13, 12:10am

Wed Nov 13, 12:00am

Tue Nov 12, 11:10pm

Tue Nov 12, 11:00pm

Tue Nov 12, 10:10pm

Tue Nov 12, 10:00pm

Tue Nov 12, 9:10pm

Tue Nov 12, 9:00pm

Tue Nov 12, 8:10pm

Tue Nov 12, 8:00pm

Tue Nov 12, 7:10pm

Tue Nov 12, 7:01pm

Tue Nov 12, 6:10pm

Tue Nov 12, 6:01pm

Tue Nov 12, 5:10pm

Tue Nov 12, 5:01pm

Tue Nov 12, 4:10pm

Tue Nov 12, 4:01pm

Tue Nov 12, 3:10pm

Tue Nov 12, 3:00pm

Tue Nov 12, 2:10pm

Tue Nov 12, 2:00pm

Tue Nov 12, 1:10pm

Tue Nov 12, 1:00pm

Tue Nov 12, 12:10pm

Tue Nov 12, 12:00pm

Tue Nov 12, 11:10am

Tue Nov 12, 11:00am

Tue Nov 12, 10:10am

Tue Nov 12, 10:01am

Tue Nov 12, 9:10am

Tue Nov 12, 9:00am

Tue Nov 12, 8:10am

Tue Nov 12, 8:00am

Tue Nov 12, 7:10am

Tue Nov 12, 7:00am

Tue Nov 12, 6:10am

Tue Nov 12, 6:00am

Tue Nov 12, 5:10am

Tue Nov 12, 5:01am

Tue Nov 12, 4:10am

Tue Nov 12, 4:00am

Tue Nov 12, 3:10am

Tue Nov 12, 3:01am

Tue Nov 12, 2:10am

Meta data:

ID: fdc319f2-4938-4b58-8219-010d54b5390e
Link: https://api.weather.gov/products/fdc319f2-4938-4b58-8219-010d54b5390e